Simultaneous Nadir Overpasses (SNOs) Predictions

Prediction of SNOs between GOES-15 and NOAA-19 Satellite Orbit:

Table of predicted SNOs for the next 14.0 days since TLE Epoch: 1/24/2025
Index Date Time (GOES-15) GOES-15 Lat,Lon NOAA-19 Lat,Lon Distance(km) Time Diff (sec)
1 01/25/2025 05:35:54 -0.02, 61.56 0.32, 60.03 173.78 80
2 01/26/2025 05:26:02 -0.01, 61.57 -0.39, 63.07 172.05 80
3 01/28/2025 17:44:59 0.00, 61.61 -0.69, 58.56 348.04 80
4 01/29/2025 17:32:27 0.00, 61.63 -0.01, 61.61 2.99 80
5 01/30/2025 17:17:14 0.00, 61.66 0.67, 64.66 342.04 80
6 02/02/2025 05:36:00 -0.00, 61.72 0.36, 60.18 175.55 80
7 02/03/2025 05:26:08 0.00, 61.74 -0.31, 63.24 169.63 80
8 02/05/2025 17:45:02 -0.00, 61.78 -0.69, 58.72 349.23 80
9 02/06/2025 17:32:30 -0.00, 61.81 0.01, 61.77 5.46 80
10 02/07/2025 17:17:16 -0.00, 61.85 0.66, 64.83 339.33 80
